Tracking 29892 objects as of 21-Nov-2024
HD Live streaming from Space Station
objects crossing your sky now

STARLINK-32150

Track STARLINK-32150 now!
10-day predictions
STARLINK-32150 is classified as:


NORAD ID: 60294
Int'l Code: 2024-132S
Perigee: 481.6 km
Apogee: 483.1 km
Inclination: 53.2 °
Period: 94.1 minutes
Semi major axis: 6853 km
RCS: Unknown
Launch date: July 28, 2024
Source: United States (US)
Launch site: AIR FORCE EASTERN TEST RANGE (AFETR)
Your satellite tracking list
Your tracking list is empty




NASA's NSSDC Master Catalog

Two Line Element Set (TLE):
1 60294U 24132S   24325.34796890 -.00000305  00000-0  18212-5 0  9993
2 60294  53.1599  95.9054 0001130  93.4563 266.6567 15.30193928 18932
Source of the keplerian elements: AFSPC